Year,Month,Day,Hour,Minute,Value (Times are PST for temperature in C)
2009,07,15,00,00,13.60
2009,07,15,00,01,13.60
2009,07,15,00,02,13.60
2009,07,15,00,03,13.60
2009,07,15,00,04,13.50
2009,07,15,00,05,13.50
2009,07,15,00,06,13.50
2009,07,15,00,07,13.50
2009,07,15,00,08,13.50
2009,07,15,00,09,13.50
2009,07,15,00,10,13.50
2009,07,15,00,11,13.50
2009,07,15,00,12,13.50
2009,07,15,00,13,13.50
2009,07,15,00,14,13.50
2009,07,15,00,15,13.50
2009,07,15,00,16,13.40
2009,07,15,00,17,13.40
2009,07,15,00,18,13.40
2009,07,15,00,19,13.40
2009,07,15,00,20,13.40
2009,07,15,00,21,13.40
2009,07,15,00,22,13.30
2009,07,15,00,23,13.30
2009,07,15,00,24,13.30
2009,07,15,00,25,13.30
2009,07,15,00,26,13.30
2009,07,15,00,27,13.30
2009,07,15,00,28,13.30
2009,07,15,00,29,13.20
2009,07,15,00,30,13.20
2009,07,15,00,31,13.20
2009,07,15,00,32,13.20
2009,07,15,00,33,13.20
2009,07,15,00,34,13.20
2009,07,15,00,35,13.10
2009,07,15,00,36,13.10
2009,07,15,00,37,13.10
2009,07,15,00,38,13.10
2009,07,15,00,39,13.10
2009,07,15,00,40,13.00
2009,07,15,00,41,13.00
2009,07,15,00,42,13.00
2009,07,15,00,43,12.90
2009,07,15,00,44,12.90
2009,07,15,00,45,12.90
2009,07,15,00,46,12.90
2009,07,15,00,47,12.80
2009,07,15,00,48,12.80
2009,07,15,00,49,12.80
2009,07,15,00,50,12.80
2009,07,15,00,51,12.70
2009,07,15,00,52,12.70
2009,07,15,00,53,12.70
2009,07,15,00,54,12.70
2009,07,15,00,55,12.70
2009,07,15,00,56,12.60
2009,07,15,00,57,12.60
2009,07,15,00,58,12.60
2009,07,15,00,59,12.60
2009,07,15,01,00,12.60
2009,07,15,01,01,12.60
2009,07,15,01,02,12.60
2009,07,15,01,03,12.60
2009,07,15,01,04,12.60
2009,07,15,01,05,12.50
2009,07,15,01,06,12.50
2009,07,15,01,07,12.50
2009,07,15,01,08,12.40
2009,07,15,01,09,12.40
2009,07,15,01,10,12.40
2009,07,15,01,11,12.40
2009,07,15,01,12,12.40
2009,07,15,01,13,12.40
2009,07,15,01,14,12.40
2009,07,15,01,15,12.40
2009,07,15,01,16,12.40
2009,07,15,01,17,12.40
2009,07,15,01,18,12.40
2009,07,15,01,19,12.40
2009,07,15,01,20,12.40
2009,07,15,01,21,12.40
2009,07,15,01,22,12.30
2009,07,15,01,23,12.30
2009,07,15,01,24,12.30
2009,07,15,01,25,12.30
2009,07,15,01,26,12.30
2009,07,15,01,27,12.30
2009,07,15,01,28,12.30
2009,07,15,01,29,12.30
2009,07,15,01,30,12.30
2009,07,15,01,31,12.30
2009,07,15,01,32,12.30
2009,07,15,01,33,12.30
2009,07,15,01,34,12.30
2009,07,15,01,35,12.30
2009,07,15,01,36,12.20
2009,07,15,01,37,12.20
2009,07,15,01,38,12.20
2009,07,15,01,39,12.20
2009,07,15,01,40,12.20
2009,07,15,01,41,12.10
2009,07,15,01,42,12.10
2009,07,15,01,43,12.10
2009,07,15,01,44,12.10
2009,07,15,01,45,12.10
2009,07,15,01,46,12.10
2009,07,15,01,47,12.00
2009,07,15,01,48,12.00
2009,07,15,01,49,12.00
2009,07,15,01,50,12.00
2009,07,15,01,51,11.90
2009,07,15,01,52,11.90
2009,07,15,01,53,11.90
2009,07,15,01,54,11.90
2009,07,15,01,55,11.90
2009,07,15,01,56,11.90
2009,07,15,01,57,11.90
2009,07,15,01,58,11.90
2009,07,15,01,59,11.90
2009,07,15,02,00,11.90
2009,07,15,02,01,11.90
2009,07,15,02,02,11.90
2009,07,15,02,03,11.80
2009,07,15,02,04,11.80
2009,07,15,02,05,11.80
2009,07,15,02,06,11.80
2009,07,15,02,07,11.80
2009,07,15,02,08,11.80
2009,07,15,02,09,11.80
2009,07,15,02,10,11.80
2009,07,15,02,11,11.80
2009,07,15,02,12,11.80
2009,07,15,02,13,11.70
2009,07,15,02,14,11.70
2009,07,15,02,15,11.70
2009,07,15,02,16,11.70
2009,07,15,02,17,11.70
2009,07,15,02,18,11.70
2009,07,15,02,19,11.70
2009,07,15,02,20,11.70
2009,07,15,02,21,11.70
2009,07,15,02,22,11.70
2009,07,15,02,23,11.70
2009,07,15,02,24,11.70
2009,07,15,02,25,11.60
2009,07,15,02,26,11.60
2009,07,15,02,27,11.60
2009,07,15,02,28,11.60
2009,07,15,02,29,11.60
2009,07,15,02,30,11.60
2009,07,15,02,31,11.60
2009,07,15,02,32,11.60
2009,07,15,02,33,11.60
2009,07,15,02,34,11.60
2009,07,15,02,35,11.60
2009,07,15,02,36,11.60
2009,07,15,02,37,11.60
2009,07,15,02,38,11.60
2009,07,15,02,39,11.60
2009,07,15,02,40,11.60
2009,07,15,02,41,11.60
2009,07,15,02,42,11.60
2009,07,15,02,43,11.60
2009,07,15,02,44,11.60
2009,07,15,02,45,11.60
2009,07,15,02,46,11.60
2009,07,15,02,47,11.60
2009,07,15,02,48,11.60
2009,07,15,02,49,11.50
2009,07,15,02,50,11.50
2009,07,15,02,51,11.50
2009,07,15,02,52,11.50
2009,07,15,02,53,11.40
2009,07,15,02,54,11.40
2009,07,15,02,55,11.40
2009,07,15,02,56,11.40
2009,07,15,02,57,11.40
2009,07,15,02,58,11.40
2009,07,15,02,59,11.30
2009,07,15,03,00,11.30
2009,07,15,03,01,11.30
2009,07,15,03,02,11.30
2009,07,15,03,03,11.30
2009,07,15,03,04,11.30
2009,07,15,03,05,11.30
2009,07,15,03,06,11.30
2009,07,15,03,07,11.30
2009,07,15,03,08,11.30
2009,07,15,03,09,11.20
2009,07,15,03,10,11.20
2009,07,15,03,11,11.20
2009,07,15,03,12,11.20
2009,07,15,03,13,11.20
2009,07,15,03,14,11.20
2009,07,15,03,15,11.20
2009,07,15,03,16,11.30
2009,07,15,03,17,11.30
2009,07,15,03,18,11.30
2009,07,15,03,19,11.30
2009,07,15,03,20,11.30
2009,07,15,03,21,11.30
2009,07,15,03,22,11.30
2009,07,15,03,23,11.20
2009,07,15,03,24,11.20
2009,07,15,03,25,11.20
2009,07,15,03,26,11.20
2009,07,15,03,27,11.20
2009,07,15,03,28,11.20
2009,07,15,03,29,11.20
2009,07,15,03,30,11.20
2009,07,15,03,31,11.20
2009,07,15,03,32,11.20
2009,07,15,03,33,11.20
2009,07,15,03,34,11.20
2009,07,15,03,35,11.20
2009,07,15,03,36,11.20
2009,07,15,03,37,11.20
2009,07,15,03,38,11.10
2009,07,15,03,39,11.10
2009,07,15,03,40,11.10
2009,07,15,03,41,11.10
2009,07,15,03,42,11.10
2009,07,15,03,43,11.10
2009,07,15,03,44,11.10
2009,07,15,03,45,11.10
2009,07,15,03,46,11.10
2009,07,15,03,47,11.00
2009,07,15,03,48,11.00
2009,07,15,03,49,11.00
2009,07,15,03,50,11.00
2009,07,15,03,51,10.90
2009,07,15,03,52,10.90
2009,07,15,03,53,10.90
2009,07,15,03,54,10.90
2009,07,15,03,55,11.00
2009,07,15,03,56,11.00
2009,07,15,03,57,11.00
2009,07,15,03,58,11.00
2009,07,15,03,59,11.00
2009,07,15,04,00,11.00
2009,07,15,04,01,11.00
2009,07,15,04,02,11.00
2009,07,15,04,03,11.00
2009,07,15,04,04,11.00
2009,07,15,04,05,11.00
2009,07,15,04,06,11.00
2009,07,15,04,07,11.00
2009,07,15,04,08,11.00
2009,07,15,04,09,11.00
2009,07,15,04,10,11.00
2009,07,15,04,11,11.00
2009,07,15,04,12,11.00
2009,07,15,04,13,11.00
2009,07,15,04,14,11.00
2009,07,15,04,15,10.90
2009,07,15,04,16,10.90
2009,07,15,04,17,10.90
2009,07,15,04,18,10.90
2009,07,15,04,19,10.90
2009,07,15,04,20,10.90
2009,07,15,04,21,10.90
2009,07,15,04,22,10.90
2009,07,15,04,23,10.90
2009,07,15,04,24,10.90
2009,07,15,04,25,10.90
2009,07,15,04,26,10.90
2009,07,15,04,27,10.90
2009,07,15,04,28,10.90
2009,07,15,04,29,10.90
2009,07,15,04,30,10.90
2009,07,15,04,31,10.90
2009,07,15,04,32,10.90
2009,07,15,04,33,10.90
2009,07,15,04,34,10.90
2009,07,15,04,35,10.90
2009,07,15,04,36,10.80
2009,07,15,04,37,10.80
2009,07,15,04,38,10.80
2009,07,15,04,39,10.80
2009,07,15,04,40,10.80
2009,07,15,04,41,10.80
2009,07,15,04,42,10.80
2009,07,15,04,43,10.80
2009,07,15,04,44,10.80
2009,07,15,04,45,10.80
2009,07,15,04,46,10.80
2009,07,15,04,47,10.80
2009,07,15,04,48,10.80
2009,07,15,04,49,10.70
2009,07,15,04,50,10.70
2009,07,15,04,51,10.70
2009,07,15,04,52,10.70
2009,07,15,04,53,10.70
2009,07,15,04,54,10.70
2009,07,15,04,55,10.70
2009,07,15,04,56,10.70
2009,07,15,04,57,10.70
2009,07,15,04,58,10.70
2009,07,15,04,59,10.70
2009,07,15,05,00,10.70
2009,07,15,05,01,10.70
2009,07,15,05,02,10.70
2009,07,15,05,03,10.70
2009,07,15,05,04,10.70
2009,07,15,05,05,10.70
2009,07,15,05,06,10.70
2009,07,15,05,07,10.70
2009,07,15,05,08,10.70
2009,07,15,05,09,10.70
2009,07,15,05,10,10.70
2009,07,15,05,11,10.70
2009,07,15,05,12,10.70
2009,07,15,05,13,10.70
2009,07,15,05,14,10.60
2009,07,15,05,15,10.60
2009,07,15,05,16,10.60
2009,07,15,05,17,10.60
2009,07,15,05,18,10.60
2009,07,15,05,19,10.60
2009,07,15,05,20,10.60
2009,07,15,05,21,10.60
2009,07,15,05,22,10.60
2009,07,15,05,23,10.60
2009,07,15,05,24,10.60
2009,07,15,05,25,10.60
2009,07,15,05,26,10.60
2009,07,15,05,27,10.50
2009,07,15,05,28,10.60
2009,07,15,05,29,10.60
2009,07,15,05,30,10.60
2009,07,15,05,31,10.60
2009,07,15,05,32,10.60
2009,07,15,05,33,10.60
2009,07,15,05,34,10.60
2009,07,15,05,35,10.60
2009,07,15,05,36,10.60
2009,07,15,05,37,10.60
2009,07,15,05,38,10.60
2009,07,15,05,39,10.60
2009,07,15,05,40,10.60
2009,07,15,05,41,10.60
2009,07,15,05,42,10.60
2009,07,15,05,43,10.60
2009,07,15,05,44,10.60
2009,07,15,05,45,10.60
2009,07,15,05,46,10.60
2009,07,15,05,47,10.60
2009,07,15,05,48,10.60
2009,07,15,05,49,10.60
2009,07,15,05,50,10.60
2009,07,15,05,51,10.60
2009,07,15,05,52,10.60
2009,07,15,05,53,10.60
2009,07,15,05,54,10.60
2009,07,15,05,55,10.70
2009,07,15,05,56,10.70
2009,07,15,05,57,10.70
2009,07,15,05,58,10.70
2009,07,15,05,59,10.70
2009,07,15,06,00,10.70
2009,07,15,06,01,10.70
2009,07,15,06,02,10.70
2009,07,15,06,03,10.70
2009,07,15,06,04,10.70
2009,07,15,06,05,10.70
2009,07,15,06,06,10.70
2009,07,15,06,07,10.70
2009,07,15,06,08,10.70
2009,07,15,06,09,10.70
2009,07,15,06,10,10.70
2009,07,15,06,11,10.80
2009,07,15,06,12,10.80
2009,07,15,06,13,10.80
2009,07,15,06,14,10.80
2009,07,15,06,15,10.80
2009,07,15,06,16,10.80
2009,07,15,06,17,10.80
2009,07,15,06,18,10.80
2009,07,15,06,19,10.80
2009,07,15,06,20,10.80
2009,07,15,06,21,10.80
2009,07,15,06,22,10.80
2009,07,15,06,23,10.80
2009,07,15,06,24,10.80
2009,07,15,06,25,10.80
2009,07,15,06,26,10.80
2009,07,15,06,27,10.80
2009,07,15,06,28,10.80
2009,07,15,06,29,10.80
2009,07,15,06,30,10.90
2009,07,15,06,31,10.90
2009,07,15,06,32,10.90
2009,07,15,06,33,10.90
2009,07,15,06,34,10.90
2009,07,15,06,35,10.90
2009,07,15,06,36,10.90
2009,07,15,06,37,11.00
2009,07,15,06,38,11.00
2009,07,15,06,39,11.00
2009,07,15,06,40,11.00
2009,07,15,06,41,11.00
2009,07,15,06,42,11.00
2009,07,15,06,43,11.00
2009,07,15,06,44,11.00
2009,07,15,06,45,11.00
2009,07,15,06,46,11.00
2009,07,15,06,47,11.00
2009,07,15,06,48,11.10
2009,07,15,06,49,11.10
2009,07,15,06,50,11.10
2009,07,15,06,51,11.10
2009,07,15,06,52,11.10
2009,07,15,06,53,11.10
2009,07,15,06,54,11.10
2009,07,15,06,55,11.10
2009,07,15,06,56,11.10
2009,07,15,06,57,11.10
2009,07,15,06,58,11.20
2009,07,15,06,59,11.20
2009,07,15,07,00,11.20
2009,07,15,07,01,11.20
2009,07,15,07,02,11.20
2009,07,15,07,03,11.30
2009,07,15,07,04,11.30
2009,07,15,07,05,11.30
2009,07,15,07,06,11.40
2009,07,15,07,07,11.40
2009,07,15,07,08,11.40
2009,07,15,07,09,11.50
2009,07,15,07,10,11.50
2009,07,15,07,11,11.60
2009,07,15,07,12,11.60
2009,07,15,07,13,11.60
2009,07,15,07,14,11.70
2009,07,15,07,15,11.70
2009,07,15,07,16,11.70
2009,07,15,07,17,11.70
2009,07,15,07,18,11.70
2009,07,15,07,19,11.80
2009,07,15,07,20,11.80
2009,07,15,07,21,11.80
2009,07,15,07,22,11.80
2009,07,15,07,23,11.80
2009,07,15,07,24,11.90
2009,07,15,07,25,11.90
2009,07,15,07,26,11.90
2009,07,15,07,27,12.00
2009,07,15,07,28,12.00
2009,07,15,07,29,12.10
2009,07,15,07,30,12.10
2009,07,15,07,31,12.20
2009,07,15,07,32,12.20
2009,07,15,07,33,12.20
2009,07,15,07,34,12.30
2009,07,15,07,35,12.30
2009,07,15,07,36,12.30
2009,07,15,07,37,12.40
2009,07,15,07,38,12.40
2009,07,15,07,39,12.40
2009,07,15,07,40,12.50
2009,07,15,07,41,12.50
2009,07,15,07,42,12.60
2009,07,15,07,43,12.60
2009,07,15,07,44,12.70
2009,07,15,07,45,12.70
2009,07,15,07,46,12.80
2009,07,15,07,47,12.80
2009,07,15,07,48,12.80
2009,07,15,07,49,12.90
2009,07,15,07,50,12.90
2009,07,15,07,51,13.00
2009,07,15,07,52,13.10
2009,07,15,07,53,13.10
2009,07,15,07,54,13.20
2009,07,15,07,55,13.20
2009,07,15,07,56,13.20
2009,07,15,07,57,13.30
2009,07,15,07,58,13.30
2009,07,15,07,59,13.40
2009,07,15,08,00,13.40
2009,07,15,08,01,13.50
2009,07,15,08,02,13.50
2009,07,15,08,03,13.60
2009,07,15,08,04,13.60
2009,07,15,08,05,13.70
2009,07,15,08,06,13.70
2009,07,15,08,07,13.80
2009,07,15,08,08,13.80
2009,07,15,08,09,13.90
2009,07,15,08,10,14.00
2009,07,15,08,11,14.10
2009,07,15,08,12,14.20
2009,07,15,08,13,14.20
2009,07,15,08,14,14.30
2009,07,15,08,15,14.30
2009,07,15,08,16,14.40
2009,07,15,08,17,14.40
2009,07,15,08,18,14.50
2009,07,15,08,19,14.60
2009,07,15,08,20,14.60
2009,07,15,08,21,14.70
2009,07,15,08,22,14.70
2009,07,15,08,23,14.80
2009,07,15,08,24,14.80
2009,07,15,08,25,14.90
2009,07,15,08,26,14.90
2009,07,15,08,27,14.90
2009,07,15,08,28,15.00
2009,07,15,08,29,15.00
2009,07,15,08,30,15.00
2009,07,15,08,31,15.00
2009,07,15,08,32,15.00
2009,07,15,08,33,15.00
2009,07,15,08,34,15.00
2009,07,15,08,35,15.00
2009,07,15,08,36,15.00
2009,07,15,08,37,15.10
2009,07,15,08,38,15.10
2009,07,15,08,39,15.10
2009,07,15,08,40,15.20
2009,07,15,08,41,15.20
2009,07,15,08,42,15.20
2009,07,15,08,43,15.20
2009,07,15,08,44,15.30
2009,07,15,08,45,15.30
2009,07,15,08,46,15.40
2009,07,15,08,47,15.40
2009,07,15,08,48,15.50
2009,07,15,08,49,15.60
2009,07,15,08,50,15.60
2009,07,15,08,51,15.70
2009,07,15,08,52,15.80
2009,07,15,08,53,15.80
2009,07,15,08,54,15.80
2009,07,15,08,55,15.80
2009,07,15,08,56,15.90
2009,07,15,08,57,15.90
2009,07,15,08,58,16.00
2009,07,15,08,59,16.10
2009,07,15,09,00,16.20
2009,07,15,09,01,16.30
2009,07,15,09,02,16.30
2009,07,15,09,03,16.40
2009,07,15,09,04,16.50
2009,07,15,09,05,16.50
2009,07,15,09,06,16.60
2009,07,15,09,07,16.60
2009,07,15,09,08,16.70
2009,07,15,09,09,16.70
2009,07,15,09,10,16.80
2009,07,15,09,11,16.80
2009,07,15,09,12,16.90
2009,07,15,09,13,17.00
2009,07,15,09,14,17.10
2009,07,15,09,15,17.20
2009,07,15,09,16,17.20
2009,07,15,09,17,17.30
2009,07,15,09,18,17.40
2009,07,15,09,19,17.50
2009,07,15,09,20,17.60
2009,07,15,09,21,17.70
2009,07,15,09,22,17.80
2009,07,15,09,23,17.90
2009,07,15,09,24,18.00
2009,07,15,09,25,18.10
2009,07,15,09,26,18.20
2009,07,15,09,27,18.20
2009,07,15,09,28,18.30
2009,07,15,09,29,18.40
2009,07,15,09,30,18.40
2009,07,15,09,31,18.50
2009,07,15,09,32,18.60
2009,07,15,09,33,18.60
2009,07,15,09,34,18.60
2009,07,15,09,35,18.70
2009,07,15,09,36,18.70
2009,07,15,09,37,18.70
2009,07,15,09,38,18.70
2009,07,15,09,39,18.60
2009,07,15,09,40,18.60
2009,07,15,09,41,18.70
2009,07,15,09,42,18.70
2009,07,15,09,43,18.70
2009,07,15,09,44,18.80
2009,07,15,09,45,18.80
2009,07,15,09,46,18.80
2009,07,15,09,47,18.80
2009,07,15,09,48,18.80
2009,07,15,09,49,18.90
2009,07,15,09,50,18.90
2009,07,15,09,51,19.00
2009,07,15,09,52,19.10
2009,07,15,09,53,19.10
2009,07,15,09,54,19.20
2009,07,15,09,55,19.10
2009,07,15,09,56,19.10
2009,07,15,09,57,19.00
2009,07,15,09,58,18.90
2009,07,15,09,59,18.70
2009,07,15,10,00,18.50
2009,07,15,10,01,18.30
2009,07,15,10,02,18.10
2009,07,15,10,03,17.90
2009,07,15,10,04,17.80
2009,07,15,10,05,17.60
2009,07,15,10,06,17.50
2009,07,15,10,07,17.40
2009,07,15,10,08,17.30
2009,07,15,10,09,17.20
2009,07,15,10,10,17.20
2009,07,15,10,11,17.20
2009,07,15,10,12,17.20
2009,07,15,10,13,17.30
2009,07,15,10,14,17.30
2009,07,15,10,15,17.40
2009,07,15,10,16,17.40
2009,07,15,10,17,17.40
2009,07,15,10,18,17.40
2009,07,15,10,19,17.40
2009,07,15,10,20,17.40
2009,07,15,10,21,17.50
2009,07,15,10,22,17.60
2009,07,15,10,23,17.70
2009,07,15,10,24,17.70
2009,07,15,10,25,17.70
2009,07,15,10,26,17.70
2009,07,15,10,27,17.70
2009,07,15,10,28,17.70
2009,07,15,10,29,17.70
2009,07,15,10,30,17.80
2009,07,15,10,31,17.80
2009,07,15,10,32,17.80
2009,07,15,10,33,17.90
2009,07,15,10,34,17.90
2009,07,15,10,35,17.90
2009,07,15,10,36,17.90
2009,07,15,10,37,17.70
2009,07,15,10,38,17.70
2009,07,15,10,39,17.70
2009,07,15,10,40,17.80
2009,07,15,10,41,17.90
2009,07,15,10,42,17.90
2009,07,15,10,43,18.00
2009,07,15,10,44,18.00
2009,07,15,10,45,18.00
2009,07,15,10,46,18.00
2009,07,15,10,47,18.00
2009,07,15,10,48,18.10
2009,07,15,10,49,18.20
2009,07,15,10,50,18.20
2009,07,15,10,51,18.30
2009,07,15,10,52,18.50
2009,07,15,10,53,18.70
2009,07,15,10,54,18.90
2009,07,15,10,55,19.10
2009,07,15,10,56,19.20
2009,07,15,10,57,19.40
2009,07,15,10,58,19.40
2009,07,15,10,59,19.50
2009,07,15,11,00,19.50
2009,07,15,11,01,19.60
2009,07,15,11,02,19.60
2009,07,15,11,03,19.60
2009,07,15,11,04,19.60
2009,07,15,11,05,19.70
2009,07,15,11,06,19.80
2009,07,15,11,07,19.80
2009,07,15,11,08,19.90
2009,07,15,11,09,19.90
2009,07,15,11,10,20.00
2009,07,15,11,11,20.10
2009,07,15,11,12,20.00
2009,07,15,11,13,19.90
2009,07,15,11,14,19.80
2009,07,15,11,15,19.70
2009,07,15,11,16,19.50
2009,07,15,11,17,19.40
2009,07,15,11,18,19.30
2009,07,15,11,19,19.20
2009,07,15,11,20,19.20
2009,07,15,11,21,19.20
2009,07,15,11,22,19.10
2009,07,15,11,23,19.10
2009,07,15,11,24,19.10
2009,07,15,11,25,19.10
2009,07,15,11,26,18.80
2009,07,15,11,27,18.70
2009,07,15,11,28,18.60
2009,07,15,11,29,18.50
2009,07,15,11,30,18.40
2009,07,15,11,31,18.50
2009,07,15,11,32,18.50
2009,07,15,11,33,18.60
2009,07,15,11,34,18.50
2009,07,15,11,35,18.40
2009,07,15,11,36,18.30
2009,07,15,11,37,18.20
2009,07,15,11,38,18.10
2009,07,15,11,39,18.20
2009,07,15,11,40,18.20
2009,07,15,11,41,18.20
2009,07,15,11,42,18.30
2009,07,15,11,43,18.50
2009,07,15,11,44,18.60
2009,07,15,11,45,18.70
2009,07,15,11,46,18.70
2009,07,15,11,47,18.70
2009,07,15,11,48,18.60
2009,07,15,11,49,18.50
2009,07,15,11,50,18.50
2009,07,15,11,51,18.40
2009,07,15,11,52,18.30
2009,07,15,11,53,18.30
2009,07,15,11,54,18.30
2009,07,15,11,55,18.30
2009,07,15,11,56,18.30
2009,07,15,11,57,18.30
2009,07,15,11,58,18.40
2009,07,15,11,59,18.50
2009,07,15,12,00,18.70
2009,07,15,12,01,18.80
2009,07,15,12,02,18.90
2009,07,15,12,03,19.00
2009,07,15,12,04,19.00
2009,07,15,12,05,19.10
2009,07,15,12,06,19.20
2009,07,15,12,07,19.30
2009,07,15,12,08,19.40
2009,07,15,12,09,19.30
2009,07,15,12,10,19.40
2009,07,15,12,11,19.40
2009,07,15,12,12,19.40
2009,07,15,12,13,19.40
2009,07,15,12,14,19.40
2009,07,15,12,15,19.40
2009,07,15,12,16,19.40
2009,07,15,12,17,19.40
2009,07,15,12,18,19.50
2009,07,15,12,19,19.60
2009,07,15,12,20,19.60
2009,07,15,12,21,19.60
2009,07,15,12,22,19.50
2009,07,15,12,23,19.30
2009,07,15,12,24,19.20
2009,07,15,12,25,19.10
2009,07,15,12,26,19.00
2009,07,15,12,27,18.90
2009,07,15,12,28,18.90
2009,07,15,12,29,18.90
2009,07,15,12,30,18.90
2009,07,15,12,31,19.00
2009,07,15,12,32,19.00
2009,07,15,12,33,19.00
2009,07,15,12,34,19.10
2009,07,15,12,35,19.20
2009,07,15,12,36,19.20
2009,07,15,12,37,19.30
2009,07,15,12,38,19.30
2009,07,15,12,39,19.30
2009,07,15,12,40,19.30
2009,07,15,12,41,19.30
2009,07,15,12,42,19.30
2009,07,15,12,43,19.30
2009,07,15,12,44,19.40
2009,07,15,12,45,19.50
2009,07,15,12,46,19.60
2009,07,15,12,47,19.70
2009,07,15,12,48,19.70
2009,07,15,12,49,19.70
2009,07,15,12,50,19.70
2009,07,15,12,51,19.80
2009,07,15,12,52,19.80
2009,07,15,12,53,19.90
2009,07,15,12,54,20.00
2009,07,15,12,55,20.00
2009,07,15,12,56,20.10
2009,07,15,12,57,20.00
2009,07,15,12,58,19.90
2009,07,15,12,59,19.90
2009,07,15,13,00,19.80
2009,07,15,13,01,19.70
2009,07,15,13,02,19.70
2009,07,15,13,03,19.70
2009,07,15,13,04,19.80
2009,07,15,13,05,19.90
2009,07,15,13,06,19.90
2009,07,15,13,07,20.00
2009,07,15,13,08,20.00
2009,07,15,13,09,20.10
2009,07,15,13,10,20.10
2009,07,15,13,11,20.10
2009,07,15,13,12,20.10
2009,07,15,13,13,20.30
2009,07,15,13,14,20.30
2009,07,15,13,15,20.40
2009,07,15,13,16,20.50
2009,07,15,13,17,20.60
2009,07,15,13,18,20.70
2009,07,15,13,19,20.80
2009,07,15,13,20,20.90
2009,07,15,13,21,20.90
2009,07,15,13,22,21.00
2009,07,15,13,23,21.00
2009,07,15,13,24,20.90
2009,07,15,13,25,20.90
2009,07,15,13,26,20.80
2009,07,15,13,27,20.70
2009,07,15,13,28,20.60
2009,07,15,13,29,20.60
2009,07,15,13,30,20.70
2009,07,15,13,31,20.80
2009,07,15,13,32,20.80
2009,07,15,13,33,20.80
2009,07,15,13,34,20.90
2009,07,15,13,35,20.90
2009,07,15,13,36,21.00
2009,07,15,13,37,21.00
2009,07,15,13,38,21.10
2009,07,15,13,39,21.10
2009,07,15,13,40,21.10
2009,07,15,13,41,21.10
2009,07,15,13,42,21.20
2009,07,15,13,43,21.30
2009,07,15,13,44,21.40
2009,07,15,13,45,21.40
2009,07,15,13,46,21.40
2009,07,15,13,47,21.40
2009,07,15,13,48,21.30
2009,07,15,13,49,21.20
2009,07,15,13,50,21.20
2009,07,15,13,51,21.30
2009,07,15,13,52,21.30
2009,07,15,13,53,21.30
2009,07,15,13,54,21.30
2009,07,15,13,55,21.40
2009,07,15,13,56,21.40
2009,07,15,13,57,21.40
2009,07,15,13,58,21.40
2009,07,15,13,59,21.40
2009,07,15,14,00,21.30
2009,07,15,14,01,21.30
2009,07,15,14,02,21.20
2009,07,15,14,03,21.10
2009,07,15,14,04,21.10
2009,07,15,14,05,21.10
2009,07,15,14,06,21.00
2009,07,15,14,07,21.00
2009,07,15,14,08,20.90
2009,07,15,14,09,20.90
2009,07,15,14,10,20.80
2009,07,15,14,11,20.90
2009,07,15,14,12,20.90
2009,07,15,14,13,20.90
2009,07,15,14,14,20.90
2009,07,15,14,15,20.90
2009,07,15,14,16,21.00
2009,07,15,14,17,21.00
2009,07,15,14,18,21.10
2009,07,15,14,19,21.20
2009,07,15,14,20,21.20
2009,07,15,14,21,21.30
2009,07,15,14,22,21.20
2009,07,15,14,23,21.20
2009,07,15,14,24,21.10
2009,07,15,14,25,21.10
2009,07,15,14,26,21.00
2009,07,15,14,27,21.00
2009,07,15,14,28,21.00
2009,07,15,14,29,21.00
2009,07,15,14,30,21.00
2009,07,15,14,31,20.90
2009,07,15,14,32,20.90
2009,07,15,14,33,20.80
2009,07,15,14,34,20.80
2009,07,15,14,35,20.90
2009,07,15,14,36,20.90
2009,07,15,14,37,21.00
2009,07,15,14,38,20.90
2009,07,15,14,39,21.00
2009,07,15,14,40,21.00
2009,07,15,14,41,21.10
2009,07,15,14,42,21.10
2009,07,15,14,43,21.20
2009,07,15,14,44,21.20
2009,07,15,14,45,21.20
2009,07,15,14,46,21.20
2009,07,15,14,47,21.20
2009,07,15,14,48,21.30
2009,07,15,14,49,21.30
2009,07,15,14,50,21.30
2009,07,15,14,51,21.40
2009,07,15,14,52,21.40
2009,07,15,14,53,21.40
2009,07,15,14,54,21.50
2009,07,15,14,55,21.50
2009,07,15,14,56,21.60
2009,07,15,14,57,21.70
2009,07,15,14,58,21.70
2009,07,15,14,59,21.70
2009,07,15,15,00,21.80
2009,07,15,15,01,21.80
2009,07,15,15,02,21.80
2009,07,15,15,03,21.80
2009,07,15,15,04,21.90
2009,07,15,15,05,22.10
2009,07,15,15,06,22.20
2009,07,15,15,07,22.30
2009,07,15,15,08,22.40
2009,07,15,15,09,22.40
2009,07,15,15,10,22.50
2009,07,15,15,11,22.50
2009,07,15,15,12,22.60
2009,07,15,15,13,22.70
2009,07,15,15,14,22.70
2009,07,15,15,15,22.80
2009,07,15,15,16,22.90
2009,07,15,15,17,22.80
2009,07,15,15,18,22.80
2009,07,15,15,19,22.70
2009,07,15,15,20,22.70
2009,07,15,15,21,22.60
2009,07,15,15,22,22.50
2009,07,15,15,23,22.40
2009,07,15,15,24,22.40
2009,07,15,15,25,22.30
2009,07,15,15,26,22.30
2009,07,15,15,27,22.20
2009,07,15,15,28,22.10
2009,07,15,15,29,22.00
2009,07,15,15,30,21.90
2009,07,15,15,31,21.90
2009,07,15,15,32,21.80
2009,07,15,15,33,21.70
2009,07,15,15,34,21.70
2009,07,15,15,35,21.70
2009,07,15,15,36,21.60
2009,07,15,15,37,21.60
2009,07,15,15,38,21.60
2009,07,15,15,39,21.60
2009,07,15,15,40,21.60
2009,07,15,15,41,21.60
2009,07,15,15,42,21.60
2009,07,15,15,43,21.60
2009,07,15,15,44,21.60
2009,07,15,15,45,21.60
2009,07,15,15,46,21.60
2009,07,15,15,47,21.70
2009,07,15,15,48,21.70
2009,07,15,15,49,21.70
2009,07,15,15,50,21.70
2009,07,15,15,51,21.70
2009,07,15,15,52,21.70
2009,07,15,15,53,21.70
2009,07,15,15,54,21.70
2009,07,15,15,55,21.70
2009,07,15,15,56,21.80
2009,07,15,15,57,21.80
2009,07,15,15,58,21.80
2009,07,15,15,59,21.80
2009,07,15,16,00,21.80
2009,07,15,16,01,21.80
2009,07,15,16,02,21.80
2009,07,15,16,03,21.80
2009,07,15,16,04,21.80
2009,07,15,16,05,21.80
2009,07,15,16,06,21.70
2009,07,15,16,07,21.70
2009,07,15,16,08,21.60
2009,07,15,16,09,21.60
2009,07,15,16,10,21.50
2009,07,15,16,11,21.40
2009,07,15,16,12,21.40
2009,07,15,16,13,21.30
2009,07,15,16,14,21.30
2009,07,15,16,15,21.20
2009,07,15,16,16,21.20
2009,07,15,16,17,21.20
2009,07,15,16,18,21.20
2009,07,15,16,19,21.20
2009,07,15,16,20,21.20
2009,07,15,16,21,21.20
2009,07,15,16,22,21.20
2009,07,15,16,23,21.30
2009,07,15,16,24,21.30
2009,07,15,16,25,21.30
2009,07,15,16,26,21.30
2009,07,15,16,27,21.30
2009,07,15,16,28,21.30
2009,07,15,16,29,21.40
2009,07,15,16,30,21.50
2009,07,15,16,31,21.50
2009,07,15,16,32,21.60
2009,07,15,16,33,21.70
2009,07,15,16,34,21.80
2009,07,15,16,35,21.80
2009,07,15,16,36,21.80
2009,07,15,16,37,21.80
2009,07,15,16,38,21.80
2009,07,15,16,39,21.80
2009,07,15,16,40,21.80
2009,07,15,16,41,21.80
2009,07,15,16,42,21.80
2009,07,15,16,43,21.70
2009,07,15,16,44,21.70
2009,07,15,16,45,21.70
2009,07,15,16,46,21.80
2009,07,15,16,47,21.80
2009,07,15,16,48,21.80
2009,07,15,16,49,21.80
2009,07,15,16,50,21.80
2009,07,15,16,51,21.80
2009,07,15,16,52,21.90
2009,07,15,16,53,22.00
2009,07,15,16,54,22.10
2009,07,15,16,55,22.10
2009,07,15,16,56,22.10
2009,07,15,16,57,22.10
2009,07,15,16,58,22.20
2009,07,15,16,59,22.20
2009,07,15,17,00,22.20
2009,07,15,17,01,22.10
2009,07,15,17,02,22.10
2009,07,15,17,03,22.10
2009,07,15,17,04,22.20
2009,07,15,17,05,22.30
2009,07,15,17,06,22.30
2009,07,15,17,07,22.40
2009,07,15,17,08,22.40
2009,07,15,17,09,22.50
2009,07,15,17,10,22.50
2009,07,15,17,11,22.60
2009,07,15,17,12,22.60
2009,07,15,17,13,22.70
2009,07,15,17,14,22.80
2009,07,15,17,15,22.90
2009,07,15,17,16,22.90
2009,07,15,17,17,23.00
2009,07,15,17,18,23.10
2009,07,15,17,19,23.20